Driggs, ID

4:55 PM MDT on April 30, 2017 (GMT -0600)
Driggs

Weather History for KDIJ - February, 2014

Change the Weather History Date:

Thursday, February 13, 2014

  Actual Average (KJAC) Record (KJAC)
Temperature  
Mean Temperature 30 °F -  
Max Temperature 37 °F 33 °F 44 °F (1967)
Min Temperature 20 °F 8 °F -18 °F (1965)
Degree Days  
Heating Degree Days 36    
Moisture  
Dew Point 29 °F    
Average Humidity 81    
Maximum Humidity 100    
Minimum Humidity 57    
Precipitation  
Precipitation 0.00 in - - ()
Sea Level Pressure  
Sea Level Pressure 29.91 in    
Wind  
Wind Speed 17 mph (SW)    
Max Wind Speed 33 mph    
Max Gust Speed 50 mph    
Visibility 9 miles    
Events Snow    
Averages and records for this station are not official NWS values.
T = Trace of Precipitation, MM = Missing Value Source: NWS Daily Summary

Daily Weather History Graph

Daily Weather History Graph

Search for Another Location

Airport or City:

Trip Planner

Search our weather history database for the weather conditions in past years. The results will help you decide how hot, cold, wet, or windy it might be!

Date:

Astronomy

Feb. 13, 2014 Rise Set
Actual Time 7:25 AM MST 5:51 PM MST
Civil Twilight 6:56 AM MST 6:21 PM MST
Nautical Twilight 6:22 AM MST 6:55 PM MST
Astronomical Twilight 5:49 AM MST 7:28 PM MST
Moon 5:03 PM MST (2/13) 6:21 AM MST (2/13)
Length of Visible Light 11h 25m
Length of Day
10h 26m
Waxing Gibbous, 99% of the Moon is Illuminated
Feb 13
Waxing Gibbous
Feb 14
Full
Feb 22
Last Quarter
Mar 1
New
Mar 8
First Quarter

Hourly Weather History & Observations

Time (MST) Temp. Windchill Dew Point Humidity Pressure Visibility Wind Dir Wind Speed Gust Speed Precip Events Conditions
12:56 AM 34.9 °F 26.6 °F 31.1 °F 86% 29.94 in 10.0 mi South 11.5 mph - N/A   Overcast
1:56 AM 34.0 °F 25.0 °F 32.0 °F 92% 29.93 in 4.0 mi South 12.7 mph - 0.00 in   Overcast
2:19 AM 33.8 °F 25.8 °F 33.8 °F 100% 29.97 in 3.0 mi South 10.4 mph - N/A   Overcast
2:43 AM 35.6 °F 28.0 °F 33.8 °F 93% 29.96 in 3.0 mi SSW 10.4 mph - N/A   Overcast
2:56 AM 34.9 °F 26.6 °F 32.9 °F 92% 29.92 in 10.0 mi South 11.5 mph - N/A   Overcast
3:07 AM 35.6 °F 28.6 °F 33.8 °F 93% 29.96 in 10.0 mi South 9.2 mph - N/A   Overcast
3:56 AM 36.9 °F 28.7 °F 32.0 °F 83% 29.89 in 10.0 mi SW 12.7 mph - N/A   Overcast
4:36 AM 35.6 °F 23.7 °F 33.8 °F 93% 29.94 in 6.0 mi SW 24.2 mph - N/A   Overcast
4:42 AM 35.6 °F 23.7 °F 33.8 °F 93% 29.94 in 9.0 mi WSW 24.2 mph - N/A   Overcast
4:56 AM 36.0 °F 26.7 °F 32.9 °F 89% 29.89 in 8.0 mi SW 15.0 mph - N/A   Overcast
5:25 AM 35.6 °F 24.8 °F 33.8 °F 93% 29.93 in 7.0 mi SSW 19.6 mph - 0.00 in   Mostly Cloudy
5:56 AM 36.9 °F 25.9 °F 32.9 °F 86% 29.86 in 10.0 mi SW 21.9 mph 29.9 mph 0.00 in   Mostly Cloudy
6:43 AM 35.6 °F 25.2 °F 33.8 °F 93% 29.91 in 7.0 mi SW 18.4 mph - 0.00 in   Mostly Cloudy
6:56 AM 36.0 °F 25.0 °F 32.9 °F 89% 29.86 in 7.0 mi SW 20.7 mph - 0.00 in   Mostly Cloudy
7:32 AM 37.4 °F 25.9 °F 30.2 °F 75% 29.91 in 10.0 mi WSW 25.3 mph 33.4 mph 0.00 in   Mostly Cloudy
7:44 AM 37.4 °F 26.1 °F 30.2 °F 75% 29.92 in 10.0 mi SW 24.2 mph 29.9 mph 0.00 in   Overcast
7:56 AM 36.9 °F 26.2 °F 30.0 °F 76% 29.86 in 10.0 mi SW 20.7 mph 32.2 mph 0.00 in   Overcast
8:56 AM 36.9 °F 24.7 °F 30.0 °F 76% 29.86 in 10.0 mi SW 27.6 mph 42.6 mph N/A   Mostly Cloudy
9:26 AM 37.4 °F 25.2 °F 30.2 °F 75% 29.92 in 10.0 mi SW 28.8 mph 34.5 mph N/A   Scattered Clouds
9:56 AM 36.9 °F 25.6 °F 30.0 °F 76% 29.86 in 10.0 mi SW 23.0 mph 39.1 mph N/A   Partly Cloudy
10:56 AM 36.9 °F 24.4 °F 29.1 °F 74% 29.85 in 10.0 mi SW 28.8 mph 38.0 mph N/A   Partly Cloudy
11:56 AM 37.9 °F 25.7 °F 30.0 °F 73% 29.83 in 10.0 mi WSW 29.9 mph 40.3 mph N/A   Partly Cloudy
12:56 PM 37.9 °F 25.1 °F 29.1 °F 71% 29.79 in 10.0 mi WSW 33.4 mph 49.5 mph N/A   Clear
1:56 PM 37.9 °F 25.7 °F 29.1 °F 71% 29.82 in 10.0 mi SW 29.9 mph 39.1 mph N/A   Clear
2:56 PM 37.9 °F 26.3 °F 28.0 °F 68% 29.84 in 10.0 mi WSW 26.5 mph 32.2 mph N/A   Mostly Cloudy
3:36 PM 37.4 °F 27.5 °F 28.4 °F 70% 29.94 in 4.0 mi West 18.4 mph - 0.00 in Snow Light Snow
3:56 PM 36.0 °F 26.7 °F 30.0 °F 79% 29.88 in 10.0 mi West 15.0 mph - 0.00 in Snow Light Snow
4:25 PM 35.6 °F 25.5 °F 30.2 °F 81% 29.94 in 10.0 mi West 17.3 mph - 0.00 in   Scattered Clouds
4:56 PM 36.0 °F 27.5 °F 29.1 °F 76% 29.88 in 10.0 mi WSW 12.7 mph - 0.00 in   Clear
5:56 PM 34.0 °F 26.0 °F 28.0 °F 79% 29.88 in 10.0 mi SW 10.4 mph - N/A   Clear
6:56 PM 32.9 °F 23.7 °F 25.2 °F 73% 29.91 in 10.0 mi WSW 12.7 mph - N/A   Clear
7:56 PM 32.9 °F 22.8 °F 19.0 °F 57% 29.94 in 10.0 mi West 15.0 mph - N/A   Clear
8:56 PM 28.0 °F 20.8 °F 21.0 °F 75% 29.99 in 10.0 mi WNW 6.9 mph - N/A   Clear
9:56 PM 25.2 °F 17.3 °F 19.0 °F 78% 30.00 in 10.0 mi NE 6.9 mph - N/A   Clear
10:56 PM 22.1 °F 12.0 °F 17.1 °F 81% 30.04 in 10.0 mi ENE 9.2 mph - N/A   Clear
11:56 PM 20.1 °F 11.3 °F 15.1 °F 81% 30.07 in 10.0 mi East 6.9 mph - N/A   Clear